EHI
0 0 0 0 1 2 2 1 0 0 0 0 0 0 0 0 0 0 0 0 0 0 0 0 0 0 0 0 0 0 0 0 0 0 0 0 0 0 0 0 0 0 0
0 0 0 0 0 1 1 1 0 0 0 0 0 0 0 0 0 0 0 0 0 0 0 0 0 0 0 0 0 0 0 0 0 0 0 0 0 0 0 0 0 0 0
0 0 0 0 0 0 0 0 0 0 0 0 0 0 0 0 0 0 0 0 0 0 0 0 0 0 0 0 0 0 0 0 0 0 0 0 0 0 0 0 0 0 0
0 0 0 0 0 0 0 0 0 0 0 0 0 0 0 0 0 0 0 0 0 0 0 0 0 0 0 0 0 0 0 0 0 0 0 0 0 0 0 0 0 0 0
0 0 0 0 0 0 0 0 0 0 0 0 0 0 0 0 0 0 0 0 0 0 0 0 0 0 0 0 0 0 0 0 0 0 0 0 0 0 0 0 0 0 0
0 0 0 0 0 0 0 0 0 0 0 0 0 0 0 0 0 0 0 0 0 0 0 0 0 0 0 0 0 0 0 0 0 0 0 0 0 0 0 0 0 0 0
0 0 0 0 0 0 0 0 0 0 0 0 0 0 0 0 0 0 0 0 0 0 0 0 0 0 0 0 0 0 0 0 0 0 0 0 0 0 0 0 0 0 0
0 0 0 0 0 0 0 0 0 0 0 0 0 0 0 0 0 0 0 0 0 0 0 0 0 0 0 0 0 0 0 0 0 0 0 0 0 0 0 0 0 0 0
0 0 0 0 0 0 0 0 0 0 0 0 0 0 0 0 0 0 0 0 0 0 0 0 0 0 0 0 0 0 0 0 0 0 0 0 0 0 0 0 0 0 0
0 0 0 0 0 0 0 0 0 0 0 0 0 0 0 0 0 0 0 0 0 0 0 0 0 0 0 0 0 0 0 0 0 0 0 0 0 0 0 0 0 0 0
0 0 0 0 0 0 0 0 0 0 0 0 0 0 0 0 0 0 0 0 0 0 0 0 0 0 0 0 0 0 0 0 0 0 0 0 0 0 0 0 0 0 0
0 0 0 0 0 0 0 0 0 0 0 0 0 0 0 0 0 0 0 0 0 0 0 0 0 0 0 0 0 0 0 0 0 0 0 0 0 0 0 0 0 0 0
0 0 0 0 0 0 0 0 0 0 0 0 0 0 0 0 0 0 0 0 0 0 0 0 0 0 0 0 0 0 0 0 0 0 0 0 0 0 0 0 0 0 0
0 0 0 0 0 0 0 0 0 0 0 0 0 0 0 0 0 0 0 0 0 0 0 0 0 0 0 0 0 0 0 0 0 0 0 0 0 0 0 0 0 0 0
0 0 0 0 0 0 0 0 0 0 0 0 0 0 0 0 0 0 0 0 0 0 0 0 0 0 0 0 0 0 0 0 0 0 0 0 0 0 0 0 0 0 0
0 0 0 0 0 0 0 0 0 0 0 0 0 0 0 0 0 0 0 0 0 0 0 0 0 0 0 0 0 0 0 0 0 0 0 0 0 0 0 0 0 0 0
0 0 0 0 0 0 0 0 0 0 0 0 0 0 0 0 0 0 0 0 0 0 0 0 0 0 0 0 0 0 0 0 0 0 0 0 0 0 0 0 0 0 0
0 0 0 0 0 0 0 0 0 0 0 0 0 0 0 0 0 0 0 0 0 0 0 0 0 0 0 0 0 0 0 0 0 0 0 0 0 0 0 0 0 0 0
0 0 0 0 0 0 0 0 0 0 0 0 0 0 0 0 0 0 0 0 0 0 0 0 0 0 0 0 0 0 0 0 0 0 0 0 0 0 0 0 0 0 0
0 0 0 0 0 0 0 0 0 0 0 0 0 0 0 0 0 0 0 0 0 0 0 0 0 0 0 0 0 0 0 0 0 0 0 0 0 0 0 0 0 0 0
0 0 0 0 0 0 0 0 0 0 0 0 0 0 0 0 0 0 0 0 0 0 0 0 0 0 0 0 0 0 0 0 0 0 0 0 0 0 0 0 0 0 0
0 0 0 0 0 0 0 0 0 0 0 0 0 0 0 0 0 0 0 0 0 0 0 0 0 0 0 0 0 0 0 0 0 0 0 0 0 0 0 0 0 0 0
0 0 0 0 0 0 0 0 0 0 0 0 0 0 0 0 0 0 0 0 0 0 0 0 0 0 0 0 0 0 0 0 0 0 0 0 0 0 0 0 0 0 0
0 0 0 0 0 0 0 0 0 0 0 0 0 0 0 0 0 0 0 0 0 0 0 0 0 0 0 0 0 0 0 0 0 0 0 0 0 0 0 0 0 0 0
0 0 0 0 0 0 0 0 0 0 0 0 0 0 0 0 0 0 0 0 0 0 0 0 0 0 0 0 0 0 0 0 0 0 0 0 0 0 0 0 0 0 0
0 0 0 0 0 0 0 0 0 0 0 0 0 0 0 0 0 0 0 0 0 0 0 0 0 0 0 0 0 0 0 0 0 0 0 0 0 0 0 0 0 0 0
Wind_Speed
3 3 3 3 3 4 5 5 5 6 7 6 6 6 6 5 4 3 2 4 5 6 7 8 7 7 5 4 4 3 2 1 2 3 4 5 6 7 8 9 10 10 12
5 4 4 3 3 4 5 5 6 6 6 6 6 6 6 5 4 4 2 2 4 5 7 8 7 6 5 4 3 2 1 0 2 3 4 5 6 7 8 9 10 11 12
6 5 4 4 4 4 5 5 5 5 5 5 6 6 5 5 4 4 3 2 2 3 5 7 7 6 6 5 4 3 2 1 2 3 4 5 6 7 8 9 10 11 12
7 5 5 4 4 4 4 5 5 5 5 5 5 5 4 4 5 4 3 3 2 2 3 5 6 6 6 5 4 3 2 2 3 3 4 5 6 7 8 9 10 11 12
7 6 5 5 5 5 5 5 4 5 6 6 5 4 4 4 4 4 4 4 3 3 2 3 4 4 5 5 4 4 3 3 3 4 5 6 6 8 9 9 11 11 12
8 6 5 6 6 5 5 5 6 4 5 6 5 4 3 3 3 4 5 4 3 4 3 2 2 2 4 4 4 4 5 4 4 5 5 6 7 8 9 9 10 11 12
8 7 6 6 6 6 7 7 6 6 4 5 4 3 1 1 3 3 3 3 4 4 4 3 2 2 2 4 5 5 6 5 5 5 5 6 7 8 8 9 10 11 12
8 8 8 7 7 6 7 7 6 5 4 5 5 5 2 1 2 3 3 4 4 3 4 4 3 3 2 1 3 5 6 6 6 6 6 6 7 8 8 9 10 11 13
9 9 9 8 8 8 8 8 9 8 6 5 5 6 6 5 2 2 3 4 4 3 3 3 4 4 3 2 2 4 5 6 7 6 6 6 7 8 8 9 10 11 12
9 9 9 9 8 7 9 9 9 7 8 7 5 3 3 5 5 3 2 3 4 4 4 3 4 4 3 3 3 5 5 6 6 6 6 6 7 7 8 9 10 11 12
9 9 9 8 8 8 9 10 9 9 7 7 6 4 3 2 3 4 4 3 2 3 4 4 3 3 4 3 3 4 5 5 6 6 6 6 6 7 8 9 10 11 12
6 8 8 8 8 8 9 10 10 11 9 8 6 6 6 5 5 4 4 5 4 3 3 3 4 4 4 4 4 5 6 5 5 5 5 5 5 6 7 9 9 10 11
6 8 8 8 8 8 9 9 9 10 10 10 9 6 6 5 4 4 4 4 2 1 2 2 3 3 4 3 4 6 6 6 5 5 4 3 4 5 6 8 9 10 11
7 8 9 9 9 9 9 9 8 9 9 10 10 9 6 5 5 5 5 5 3 1 2 3 2 4 4 4 4 6 4 6 5 4 3 2 3 3 5 6 8 9 10
6 8 9 9 9 9 9 9 8 9 9 10 9 10 7 5 5 4 4 6 6 4 5 4 3 3 3 3 4 4 3 6 5 4 3 2 2 3 4 5 7 8 9
6 7 8 9 9 9 10 9 8 9 10 9 8 9 8 6 6 5 5 4 4 5 4 3 3 2 3 3 5 3 4 5 5 4 4 3 3 2 3 4 5 7 8
5 7 7 8 8 9 10 9 9 10 11 10 9 10 10 8 7 5 5 5 4 4 4 2 1 2 3 3 3 2 2 2 3 5 4 4 3 3 3 3 4 6 7
5 5 6 7 8 8 9 10 10 10 11 12 11 11 11 8 9 7 6 6 5 4 5 4 2 2 2 3 3 2 1 1 2 4 4 4 3 3 3 3 4 4 5
4 4 5 6 7 8 8 9 10 10 11 12 12 12 11 11 10 8 8 6 5 4 3 4 3 2 1 2 2 1 1 1 1 2 3 3 3 2 2 3 3 4 4
4 4 4 5 6 7 8 9 9 10 10 10 10 11 11 12 12 11 8 8 6 5 4 4 3 2 2 2 2 2 1 1 1 0 1 1 2 1 1 2 2 3 4
3 3 3 4 4 5 6 8 9 10 10 10 9 10 10 12 13 11 9 8 8 6 5 4 4 3 3 3 3 3 2 1 0 1 0 1 1 0 1 2 2 2 3
2 2 3 4 4 4 6 9 9 9 10 10 9 9 9 10 13 14 14 13 12 10 8 6 4 5 5 5 3 3 3 2 2 1 1 1 1 1 1 1 2 2 3
2 2 3 3 4 5 6 7 9 9 9 10 9 9 7 7 11 9 11 11 10 11 11 9 7 7 6 7 7 5 4 3 3 2 2 1 1 1 1 2 3 2 3
2 2 3 3 3 4 4 5 6 8 8 8 8 9 9 8 9 10 9 7 6 6 7 6 6 6 5 6 7 6 5 3 2 1 2 2 1 1 1 1 3 2 3
3 2 2 2 1 2 3 5 6 5 6 7 7 8 9 8 12 14 10 8 6 4 5 7 7 6 8 9 8 6 5 3 2 2 1 2 1 1 1 1 2 3 3
3 3 2 1 2 2 3 4 6 4 5 5 5 7 10 10 13 14 10 9 9 6 5 5 5 6 6 7 9 6 6 4 3 2 3 2 1 1 1 1 1 1 2
Wind_Direction
175 176 177 175 178 171 166 165 161 160 158 158 160 161 165 166 167 169 194 197 188 191 185 174 169 167 161 156 148 137 112 63 20 15 12 6 359 354 350 348 349 349 346
178 181 182 180 185 179 174 172 169 167 167 164 164 166 171 170 172 173 179 205 200 198 199 187 179 177 177 179 174 172 164 355 359 356 352 350 347 346 347 347 345 343 341
184 181 184 187 186 179 172 169 163 163 165 164 165 168 172 175 173 177 178 184 205 213 208 198 192 191 190 193 195 197 211 272 320 330 333 334 339 339 338 340 340 338 338
193 184 185 193 185 177 177 172 169 169 171 170 167 172 174 175 179 182 179 182 186 202 214 204 203 201 199 205 210 215 228 259 289 308 317 326 331 331 333 335 335 336 337
199 191 189 192 183 180 185 181 175 177 175 174 170 169 175 178 182 181 185 190 189 186 193 206 205 207 213 215 220 232 241 257 281 298 309 317 321 325 328 330 333 335 336
202 196 193 190 186 184 189 186 174 183 177 169 163 158 172 182 181 188 193 191 191 189 185 184 193 215 219 223 233 247 255 261 276 289 300 309 315 319 323 328 333 334 334
204 198 196 190 190 192 191 185 172 174 176 162 140 133 98 181 193 200 193 190 196 193 180 180 182 181 219 232 241 248 259 266 276 287 296 304 308 313 319 327 330 331 332
207 203 198 195 195 193 189 188 175 169 175 173 153 143 148 238 233 204 192 196 199 187 187 186 181 182 185 197 245 250 261 270 279 287 293 300 308 312 319 324 327 329 330
212 209 204 200 200 196 194 190 185 177 178 189 177 160 163 196 188 209 201 195 191 188 194 188 190 188 184 191 218 249 261 267 274 281 291 299 305 311 319 324 326 328 331
214 210 205 202 202 203 197 193 191 187 177 183 191 194 174 156 157 175 208 196 192 196 196 194 196 194 186 192 213 233 250 261 266 276 287 294 301 309 318 324 328 331 332
216 211 206 205 206 206 200 195 192 190 189 187 183 171 165 157 147 154 191 196 200 205 197 195 194 196 191 192 206 227 238 248 257 269 280 289 301 311 319 326 330 332 334
217 213 210 207 210 207 200 197 198 195 195 193 191 184 174 169 177 163 178 192 203 206 192 191 195 199 195 194 211 217 225 233 245 260 275 286 297 311 319 324 329 330 332
220 215 214 211 210 211 204 197 199 199 195 194 198 200 196 188 172 160 157 173 184 197 187 203 204 195 193 190 209 211 223 227 234 246 263 281 298 310 316 322 326 328 331
223 215 213 214 213 211 207 199 201 204 198 198 201 198 194 193 180 171 163 159 170 217 216 220 197 199 195 191 204 199 218 224 227 233 242 258 286 306 314 320 324 329 332
227 218 215 215 212 210 206 201 204 206 198 199 201 200 195 193 185 181 170 166 167 194 226 211 199 198 192 185 194 190 201 221 219 222 225 237 268 294 310 318 324 330 334
228 223 218 215 211 212 207 204 203 205 201 200 197 196 194 191 185 181 175 174 173 179 207 202 191 175 175 180 187 179 201 207 215 219 221 228 243 268 295 312 321 326 329
230 227 220 216 212 213 206 203 207 202 203 200 196 195 194 185 185 182 175 172 177 172 191 200 163 158 169 177 175 176 186 195 209 218 220 222 231 246 277 299 313 322 329
232 234 225 219 214 214 208 202 206 205 201 199 197 193 194 182 185 182 180 179 183 180 175 185 179 172 181 180 167 169 174 183 205 219 222 226 238 251 274 297 312 325 332
233 236 230 224 221 215 212 209 205 205 200 198 194 192 191 182 187 185 181 181 182 174 168 167 174 165 153 150 139 147 155 164 208 219 227 233 249 260 285 302 319 333 336
232 233 233 232 232 220 212 209 207 202 198 196 192 190 189 186 186 182 179 180 173 165 161 161 165 156 153 147 144 167 189 189 209 147 246 259 261 265 285 299 317 333 338
239 231 229 236 244 224 212 209 203 195 194 192 189 189 189 186 183 180 175 175 171 170 168 172 173 161 166 167 185 177 185 166 185 154 246 259 253 252 257 286 306 317 335
259 251 242 243 248 233 218 214 202 193 190 189 186 185 184 183 180 178 174 174 174 176 181 182 186 187 195 188 171 167 156 151 219 196 176 235 174 226 256 252 285 316 329
281 279 269 256 251 235 221 213 199 191 187 186 181 180 178 179 175 175 172 170 176 180 180 181 185 196 191 186 170 169 176 177 193 170 150 208 204 240 243 254 269 296 324
290 277 272 266 259 233 214 203 187 188 184 181 179 179 176 176 176 168 163 167 176 185 186 184 187 191 182 172 172 169 160 126 93 136 137 173 214 260 292 277 256 285 325
296 285 276 270 278 263 230 202 179 172 173 174 174 175 174 177 172 163 164 165 166 174 161 158 153 149 148 150 145 130 135 130 144 180 160 143 165 301 291 265 269 281 325
296 297 304 304 287 275 260 205 172 159 163 167 171 176 177 176 173 166 169 170 173 172 150 137 130 124 130 143 147 156 161 153 142 179 184 146 141 98 323 278 283 291 308